#datint,netname,site,siteID,timestamp,IntT,BattV,AirT2,AirT,AirT_Avg,AirT_Max,AirT_Min,RH_Avg,RH_Max,RH_Min,EA_Avg,Td_Avg,Td_Max,Td_Min,WindS_Smp,WindS_Avg,WindD_Avg,WindD_SD,WindS_Max,ETo,ETr,SoilT4,SoilT8,SoilVWC8,SolarW_Avg,wetstate_Avg,wetT_Avg,Precip_accum,Precip_WPG,Precip_TB
15min,AgWx,beryljct,423,01SEP2019:00:00:00,60.4,12.96,52.4,52.7,55.5,58.9,52.6,59,69,49,0.905,41.4,42.6,39.5,3.727,2.6,31,67,4.8,-0.00005,-0.00003,69.0,70.1,11,0,.,.,17.19,0.00,0.00
15min,AgWx,beryljct,423,01SEP2019:00:15:00,58.7,12.95,56.4,55.9,53.8,55.9,52.4,62,67,53,0.810,41.1,42.1,39.1,0,1.7,218,51,4.5,-0.00013,-0.00017,68.7,70.0,10,0,.,.,17.20,0.00,0.00
15min,AgWx,beryljct,423,01SEP2019:00:30:00,57.4,12.94,55.9,57.3,56.9,57.9,55.9,49,53,45,0.796,38.2,39.1,36.9,0.044,0.5,258,4.2,1.8,-0.00029,-0.00044,68.4,70.0,10,0,.,.,17.20,0.00,0.00
15min,AgWx,beryljct,423,01SEP2019:00:45:00,56.7,12.92,55.5,53.3,55.6,58.6,53.0,55,66,43,0.872,39.5,42.1,36.1,2.762,1.8,180,13,3.6,-0.00012,-0.00013,68.1,69.9,10,0,.,.,17.20,0.00,0.00
15min,AgWx,beryljct,423,01SEP2019:01:00:00,55.8,12.91,57.9,52.4,54.7,56.8,52.3,55,66,45,0.857,38.8,41.2,35.7,2.346,1.4,157,3.2,2.4,-0.00016,-0.00021,67.8,69.8,11,0,.,.,17.20,0.00,0.00
15min,AgWx,beryljct,423,01SEP2019:01:15:00,55.5,12.91,57.4,55.9,57.0,59.4,52.9,46,61,38,0.768,36.2,40.0,33.6,2.762,3.1,185,26,5.2,0.00007,0.00014,67.5,69.7,10,0,.,.,17.20,0.00,0.00
15min,AgWx,beryljct,423,01SEP2019:01:30:00,55.5,12.9,55.4,55.0,56.7,60.3,54.5,47,57,32,0.781,36.7,40.0,30.6,0.066,2.4,183,16,4.9,-0.00001,0.00002,67.2,69.6,10,0,.,.,17.20,0.00,0.00
15min,AgWx,beryljct,423,01SEP2019:01:45:00,55.2,12.89,53.2,55.1,55.4,56.6,54.1,50,56,45,0.747,36.8,38.8,35.3,0,1.1,159,1.1,2.9,-0.00020,-0.00027,67.0,69.6,10,0,.,.,17.20,0.00,0.00
15min,AgWx,beryljct,423,01SEP2019:02:00:00,54.7,12.89,55.6,55.5,54.8,55.8,53.3,49,56,44,0.684,36.1,38.3,34.2,2.828,1.5,155,5.4,3.4,-0.00015,-0.00018,66.7,69.5,10,0,.,.,17.20,0.00,0.00
15min,AgWx,beryljct,423,01SEP2019:02:15:00,54.5,12.88,48.7,51.0,54.0,55.5,51.0,50,61,46,0.774,35.8,38.0,34.7,2.214,3.2,148,5.4,4.0,0.00005,0.00010,66.4,69.4,10,0,.,.,17.20,0.00,0.00
15min,AgWx,beryljct,423,01SEP2019:02:30:00,53.6,12.88,49.6,48.8,50.4,51.7,48.7,63,71,58,0.828,38.4,39.7,37.5,2.565,3.0,158,15,4.1,-0.00003,-0.00001,66.2,69.3,10,0,.,.,17.20,0.00,0.00
15min,AgWx,beryljct,423,01SEP2019:02:45:00,52.6,12.87,48.0,48.7,49.1,50.2,47.7,69,75,64,0.828,39.4,40.2,38.4,1.688,1.6,160,48,3.6,-0.00016,-0.00020,65.9,69.2,11,0,.,.,17.20,0.00,0.00
15min,AgWx,beryljct,423,01SEP2019:03:00:00,51.5,12.85,48.8,48.5,48.5,49.5,48.0,72,75,67,0.850,40.0,40.7,39.0,2.148,1.4,139,8.8,3.6,-0.00018,-0.00024,65.7,69.1,11,0,.,.,17.20,0.00,0.00
15min,AgWx,beryljct,423,01SEP2019:03:15:00,51.0,12.84,48.3,49.1,50.2,52.3,48.4,62,73,51,0.788,37.7,40.2,34.7,3.727,2.1,153,4.5,4.4,-0.00010,-0.00012,65.4,69.0,10,0,.,.,17.21,0.00,0.00
15min,AgWx,beryljct,423,01SEP2019:03:30:00,50.6,12.85,47.3,47.1,48.1,49.3,46.9,70,76,64,0.828,38.6,39.8,37.5,0.899,1.8,145,6.0,3.7,-0.00014,-0.00018,65.2,68.9,11,0,.,.,17.21,0.00,0.00
15min,AgWx,beryljct,423,01SEP2019:03:45:00,50.0,12.85,48.1,47.8,47.7,48.1,47.1,73,75,71,0.828,39.5,40.0,39.0,0.789,1.0,139,0.5,2.8,-0.00021,-0.00030,65.0,68.8,10,0,.,.,17.20,0.00,0.00
15min,AgWx,beryljct,423,01SEP2019:04:00:00,49.4,12.82,47.8,47.7,47.7,47.9,47.2,76,81,72,0.846,40.4,41.7,39.5,0,0.6,196,36,2.2,-0.00025,-0.00037,64.7,68.7,10,0,.,.,17.21,0.00,0.00
15min,AgWx,beryljct,423,01SEP2019:04:15:00,49.3,12.83,50.4,50.3,49.9,51.8,47.6,64,76,55,0.753,38.1,40.5,36.1,3.288,1.6,279,47,3.6,-0.00015,-0.00019,64.5,68.6,10,0,.,.,17.21,0.00,0.00
15min,AgWx,beryljct,423,01SEP2019:04:30:00,49.4,12.83,45.9,46.8,48.8,50.3,46.8,69,76,61,0.829,39.0,39.7,37.2,0,2.4,338,27,4.6,-0.00009,-0.00010,64.3,68.5,11,0,.,.,17.21,0.00,0.00
15min,AgWx,beryljct,423,01SEP2019:04:45:00,49.0,12.81,47.2,46.8,47.2,48.0,46.7,73,76,69,0.815,39.0,39.8,38.4,3.573,2.5,346,18,4.1,-0.00011,-0.00012,64.1,68.3,10,0,.,.,17.20,0.00,0.00
15min,AgWx,beryljct,423,01SEP2019:05:00:00,48.7,12.82,48.5,48.6,47.9,49.4,46.8,71,75,65,0.783,38.8,39.3,38.1,1.491,3.5,320,5.6,5.9,-0.00004,-0.00003,63.8,68.2,10,0,.,.,17.21,0.00,0.00
15min,AgWx,beryljct,423,01SEP2019:05:15:00,48.6,12.81,49.0,48.7,49.3,50.7,48.4,64,67,59,0.784,37.7,38.4,36.9,3.683,1.9,158,90,4.3,-0.00013,-0.00016,63.7,68.1,10,0,.,.,17.21,0.00,0.00
15min,AgWx,beryljct,423,01SEP2019:05:30:00,48.4,12.81,47.3,48.6,48.6,49.6,47.3,68,73,63,0.815,38.4,39.3,37.6,0.548,0.9,201,0.3,3.5,-0.00022,-0.00031,63.4,68.0,10,0,.,.,17.21,0.00,0.00
15min,AgWx,beryljct,423,01SEP2019:05:45:00,47.9,12.81,46.7,45.7,45.6,48.4,44.4,79,83,71,0.843,39.5,40.3,38.6,1.666,2.3,147,15,5.3,-0.00013,-0.00016,63.2,67.9,11,0,.,.,17.20,0.00,0.00
15min,AgWx,beryljct,423,01SEP2019:06:00:00,47.5,12.8,46.9,46.4,46.5,49.2,45.7,75,80,62,0.796,38.8,40.1,36.6,4.297,2.9,160,23,4.5,-0.00009,-0.00010,63.0,67.8,11,0,.,.,17.21,0.00,0.00
15min,AgWx,beryljct,423,01SEP2019:06:15:00,47.1,12.78,46.5,46.8,46.7,47.1,45.9,73,76,70,0.766,38.3,39.2,37.7,3.157,2.9,168,6.4,4.4,-0.00008,-0.00008,62.8,67.7,10,0,.,.,17.21,0.00,0.00
15min,AgWx,beryljct,423,01SEP2019:06:30:00,46.9,12.8,47.3,46.9,46.4,46.9,45.9,71,73,67,0.735,37.4,38.0,36.5,3.244,3.1,175,5.6,4.1,0.00021,0.00036,62.6,67.6,10,0,.,.,17.21,0.00,0.00
15min,AgWx,beryljct,423,01SEP2019:06:45:00,46.7,12.79,45.9,46.3,46.8,47.6,46.2,68,70,65,0.750,37.0,37.4,36.4,1.798,2.6,172,4.2,4.1,0.00020,0.00034,62.5,67.4,10,0,.,.,17.20,0.00,0.00
15min,AgWx,beryljct,423,01SEP2019:07:00:00,46.4,12.78,45.9,44.8,45.5,46.6,44.7,74,79,71,0.795,37.8,38.7,37.2,0,1.3,176,0.1,3.0,0.00009,0.00016,62.3,67.4,11,2,.,.,17.20,0.00,0.00
15min,AgWx,beryljct,423,01SEP2019:07:15:00,46.0,12.77,44.0,44.0,44.6,45.7,43.7,81,83,78,0.783,39.1,39.7,38.2,1.337,0.9,166,20,1.9,0.00009,0.00012,62.1,67.2,11,8,.,.,17.20,0.00,0.00
15min,AgWx,beryljct,423,01SEP2019:07:30:00,45.8,12.82,46.8,46.5,45.0,46.5,43.9,77,81,68,0.733,38.2,39.3,36.5,0.811,0.5,120,0.0,1.6,0.00028,0.00031,61.9,67.1,11,45,.,.,17.21,0.00,0.00
15min,AgWx,beryljct,423,01SEP2019:07:45:00,46.3,12.84,46.4,46.1,46.1,46.6,45.6,72,80,68,0.848,37.7,40.3,36.2,1.162,2.1,354,81,3.6,0.00052,0.00065,61.7,67.0,10,84,.,.,17.20,0.00,0.00
15min,AgWx,beryljct,423,01SEP2019:08:00:00,47.7,12.82,47.7,47.7,47.2,47.7,46.2,78,81,76,0.906,40.7,42.0,40.2,0.066,0.6,344,29,1.3,0.00064,0.00070,61.5,66.9,10,128,.,.,17.20,0.00,0.00
15min,AgWx,beryljct,423,01SEP2019:08:15:00,49.5,12.86,50.7,50.4,49.1,50.5,47.6,78,82,74,0.966,42.7,44.4,40.8,0,0.6,34,0.0,1.6,0.00087,0.00096,61.4,66.8,10,176,.,.,17.20,0.00,0.00
15min,AgWx,beryljct,423,01SEP2019:08:30:00,51.8,12.94,53.1,52.9,51.8,52.9,50.4,77,79,74,1.033,44.8,46.2,43.4,1.776,1.0,103,18,2.6,0.00117,0.00129,61.2,66.7,10,226,.,.,17.20,0.00,0.00
15min,AgWx,beryljct,423,01SEP2019:08:45:00,54.3,13.08,54.8,54.7,53.7,54.7,52.8,72,76,69,1.043,45.0,47.0,43.3,1.381,1.4,126,10,2.5,0.00149,0.00166,61.1,66.6,10,278,.,.,17.20,0.00,0.00
15min,AgWx,beryljct,423,01SEP2019:09:00:00,56.9,13.4,57.9,57.4,56.0,57.4,54.7,72,75,68,1.178,47.1,49.3,45.9,0.986,1.4,133,0.5,2.0,0.00182,0.00201,61.0,66.5,10,331,.,.,17.19,0.00,0.00
15min,AgWx,beryljct,423,01SEP2019:09:15:00,59.7,13.77,60.9,60.0,58.7,60.0,57.5,61,74,54,0.956,45.3,49.6,42.8,0,0.5,135,2.7,1.6,0.00218,0.00236,60.9,66.4,10,383,.,.,17.19,0.00,0.00
15min,AgWx,beryljct,423,01SEP2019:09:30:00,62.7,14.27,62.1,61.8,60.9,61.8,60.1,49,55,45,0.921,41.9,44.4,39.3,0.088,0.3,139,0.0,0.9,0.00252,0.00273,60.9,66.2,10,435,.,.,17.19,0.00,0.00
15min,AgWx,beryljct,423,01SEP2019:09:45:00,65.6,14.23,68.7,66.6,63.3,66.6,61.8,52,57,40,0.891,45.1,47.9,41.6,0,0.0,136,0.3,0.6,0.00289,0.00309,60.9,66.2,10,486,.,.,17.19,0.00,0.00
15min,AgWx,beryljct,423,01SEP2019:10:00:00,68.9,14.18,67.5,67.6,66.9,68.6,65.3,48,54,40,1.122,46.5,50.1,41.8,0,0.3,136,0.3,0.9,0.00332,0.00357,60.9,66.1,10,535,.,.,17.18,0.00,0.00
15min,AgWx,beryljct,423,01SEP2019:10:15:00,71.9,14.16,69.9,69.8,68.8,69.8,67.7,46,56,37,0.917,46.8,52.4,42.0,0.132,0.4,128,4.5,1.5,0.00370,0.00399,61.0,66.0,10,582,.,.,17.17,0.00,0.00
15min,AgWx,beryljct,423,01SEP2019:10:30:00,74.3,14.07,71.5,71.4,70.6,71.4,69.8,43,50,36,1.193,47.0,51.7,41.6,0.68,1.4,101,11,2.3,0.00414,0.00460,61.1,65.9,10,627,.,.,17.17,0.00,0.00
15min,AgWx,beryljct,423,01SEP2019:10:45:00,76.7,14,73.7,73.4,72.5,73.4,71.4,43,52,37,1.139,48.7,53.0,45.4,0.965,1.0,94,4.7,1.8,0.00447,0.00490,61.3,65.8,10,669,.,.,17.17,0.00,0.00
15min,AgWx,beryljct,423,01SEP2019:11:00:00,78.7,13.97,75.3,74.8,74.1,74.8,73.5,44,53,36,1.304,50.9,56.0,45.1,1.14,1.3,94,4.0,2.1,0.00482,0.00531,61.6,65.7,10,708,.,.,17.16,0.00,0.00
15min,AgWx,beryljct,423,01SEP2019:11:15:00,80.3,14.03,76.3,76.4,75.7,76.4,74.9,43,50,36,1.355,51.8,55.9,47.2,2.872,2.5,100,5.0,3.6,0.00522,0.00589,61.9,65.6,10,744,.,.,17.16,0.00,0.00
15min,AgWx,beryljct,423,01SEP2019:11:30:00,81.4,13.9,77.6,77.5,77.0,77.6,76.5,44,52,34,1.454,53.5,57.8,46.1,3.157,3.0,106,8.8,4.0,0.00555,0.00631,62.3,65.6,10,777,.,.,17.16,0.00,0.00
15min,AgWx,beryljct,423,01SEP2019:11:45:00,82.4,13.5,78.8,79.2,78.5,79.2,77.5,41,49,34,1.428,52.6,56.9,48.2,4.012,2.9,113,6.8,4.3,0.00585,0.00663,62.8,65.5,10,810,.,.,17.16,0.00,0.00
15min,AgWx,beryljct,423,01SEP2019:12:00:00,83.3,13.49,80.2,80.1,79.8,80.2,79.1,38,50,32,1.261,51.9,59.6,47.5,3.771,3.6,94,11,4.5,0.00617,0.00710,63.3,65.5,10,837,.,.,17.16,0.00,0.00
15min,AgWx,beryljct,423,01SEP2019:12:15:00,84.1,13.44,82.0,81.9,81.1,81.9,80.1,41,49,26,1.678,55.0,60.5,43.2,3.223,4.0,84,8.3,6.4,0.00638,0.00736,63.9,65.4,10,855,.,.,17.16,0.00,0.00
15min,AgWx,beryljct,423,01SEP2019:12:30:00,85.1,13.45,82.7,82.6,82.6,83.0,81.9,36,45,29,1.154,52.6,58.4,47.2,7.607,6.2,117,35,10.6,0.00676,0.00813,64.5,65.4,10,861,.,.,17.16,0.00,0.00
15min,AgWx,beryljct,423,01SEP2019:12:45:00,85.7,13.41,86.4,86.3,84.2,86.9,82.1,26,39,12,0.495,43.8,54.8,26.9,10.94,10.0,174,43,29.1,0.00748,0.00962,65.1,65.4,10,859,.,.,17.16,0.00,0.00
15min,AgWx,beryljct,423,01SEP2019:13:00:00,86.8,13.4,87.1,87.6,86.8,87.6,86.2,16,20,9.4,0.655,34.5,40.3,22.7,6.335,8.9,216,13,12.4,0.00803,0.01031,65.8,65.4,10,917,.,.,17.16,0.00,0.00
15min,AgWx,beryljct,423,01SEP2019:13:15:00,87.7,13.38,88.6,87.0,87.5,88.7,86.9,14,20,9.6,0.801,32.6,40.7,24.2,5.48,8.4,219,18,15.3,0.00808,0.01032,66.5,65.5,10,926,.,.,17.15,0.00,0.00
15min,AgWx,beryljct,423,01SEP2019:13:30:00,88.3,13.4,87.7,88.3,87.8,88.9,87.1,13,18,8.0,0.693,30.6,39.8,19.5,5.02,9.2,208,17,15.9,0.00827,0.01069,67.0,65.5,10,929,.,.,17.15,0.00,0.00
15min,AgWx,beryljct,423,01SEP2019:13:45:00,88.9,13.36,87.8,86.3,88.4,89.2,86.2,15,22,9.1,0.731,33.7,43.5,22.7,13.75,8.5,189,23,14.0,0.00814,0.01038,67.6,65.6,10,928,.,.,17.15,0.00,0.00
15min,AgWx,beryljct,423,01SEP2019:14:00:00,89.5,13.37,88.4,88.1,88.4,89.5,86.7,15,23,10,0.678,35.4,44.7,25.8,5.305,8.7,213,21,17.0,0.00816,0.01046,68.2,65.6,10,922,.,.,17.15,0.00,0.00
15min,AgWx,beryljct,423,01SEP2019:14:15:00,90.1,13.31,88.9,89.0,88.8,89.6,88.1,14,19,12,0.627,34.1,40.7,29.5,14.95,10.2,195,14,15.4,0.00836,0.01092,68.7,65.8,10,914,.,.,17.15,0.00,0.00
15min,AgWx,beryljct,423,01SEP2019:14:30:00,90.6,13.32,90.1,89.6,88.3,89.6,86.0,16,24,11,0.789,35.7,45.0,27.0,9.95,9.7,186,23,16.6,0.00816,0.01062,69.3,65.9,10,900,.,.,17.15,0.00,0.00
15min,AgWx,beryljct,423,01SEP2019:14:45:00,91.1,13.32,88.9,88.3,89.2,89.9,88.3,16,20,10,0.691,36.2,43.3,26.5,2.981,9.5,198,16,16.4,0.00810,0.01054,69.8,66.0,10,886,.,.,17.15,0.00,0.00
15min,AgWx,beryljct,423,01SEP2019:15:00:00,91.6,13.37,89.4,89.4,89.1,89.6,88.4,15,18,10,0.651,34.8,39.9,25.3,11.66,9.2,204,24,15.3,0.00786,0.01022,70.4,66.1,10,866,.,.,17.15,0.00,0.00
15min,AgWx,beryljct,423,01SEP2019:15:15:00,92.0,13.3,90.1,88.8,89.5,90.2,88.6,15,19,11,0.653,34.8,41.7,28.3,9.08,10.5,192,14,14.8,0.00799,0.01061,70.9,66.2,10,844,.,.,17.15,0.00,0.00
15min,AgWx,beryljct,423,01SEP2019:15:30:00,92.2,13.31,88.6,89.3,89.1,89.9,88.4,15,20,11,0.609,35.2,41.9,28.4,14.07,10.5,206,17,16.1,0.00775,0.01033,71.4,66.4,10,817,.,.,17.15,0.00,0.00
15min,AgWx,beryljct,423,01SEP2019:15:45:00,92.3,13.25,88.1,89.2,88.9,89.6,87.6,16,25,11,0.701,36.1,47.8,27.4,9.47,8.6,196,26,16.5,0.00720,0.00942,71.9,66.5,10,788,.,.,17.15,0.00,0.00
15min,AgWx,beryljct,423,01SEP2019:16:00:00,92.5,13.28,89.9,89.4,89.2,90.2,87.7,15,22,11,0.677,35.8,44.9,26.6,12.61,9.2,191,26,17.3,0.00693,0.00924,72.4,66.7,10,733,.,.,17.15,0.00,0.00
15min,AgWx,beryljct,423,01SEP2019:16:15:00,92.7,13.26,87.3,88.8,89.1,90.3,87.9,14,19,9.1,0.707,34.2,41.5,24.0,7.037,8.4,188,21,14.8,0.00659,0.00876,72.8,66.8,10,704,.,.,17.15,0.00,0.00
15min,AgWx,beryljct,423,01SEP2019:16:30:00,92.7,13.28,89.5,88.6,89.0,90.0,87.7,15,19,11,0.644,34.9,40.9,27.7,7.366,8.9,183,15,13.4,0.00649,0.00872,73.3,67.0,10,680,.,.,17.15,0.00,0.00
15min,AgWx,beryljct,423,01SEP2019:16:45:00,92.7,13.33,89.9,89.4,89.3,89.9,88.0,14,20,9.7,0.604,33.9,42.9,25.2,14.78,10.4,190,15,16.0,0.00650,0.00901,73.6,67.2,10,639,.,.,17.16,0.01,0.00
15min,AgWx,beryljct,423,01SEP2019:17:00:00,92.5,13.27,88.8,88.9,89.1,89.7,88.5,15,19,11,0.864,35.5,41.4,27.6,9.23,9.4,199,13,14.8,0.00592,0.00822,74.0,67.3,10,584,.,.,17.15,0.00,0.00
15min,AgWx,beryljct,423,01SEP2019:17:15:00,92.1,13.28,88.4,87.3,88.3,89.4,87.2,16,21,12,0.822,36.8,43.1,30.2,10.46,9.4,213,14,15.5,0.00562,0.00785,74.2,67.5,10,551,.,.,17.15,0.00,0.00
15min,AgWx,beryljct,423,01SEP2019:17:30:00,91.7,13.27,89.2,88.4,88.5,89.2,87.4,16,19,12,0.739,36.2,40.9,30.3,12.36,10.0,200,14,14.2,0.00541,0.00773,74.5,67.7,10,503,.,.,17.16,0.00,0.00
15min,AgWx,beryljct,423,01SEP2019:17:45:00,91.4,13.3,87.6,88.4,88.4,88.9,87.7,16,19,13,0.705,35.8,40.5,31.3,9.84,9.8,198,11,15.5,0.00503,0.00732,74.6,67.9,10,453,.,.,17.16,0.00,0.00
15min,AgWx,beryljct,423,01SEP2019:18:00:00,90.8,13.3,85.3,87.1,87.0,88.4,85.7,19,24,13,1.033,39.6,45.4,30.8,2.981,6.8,210,10,14.4,0.00393,0.00554,74.8,68.1,10,402,.,.,17.16,0.00,0.00
15min,AgWx,beryljct,423,01SEP2019:18:15:00,90.3,13.31,88.3,88.4,87.7,89.0,85.7,17,30,12,0.729,36.8,50.5,28.9,6.555,8.1,198,16,11.3,0.00386,0.00571,74.9,68.2,10,351,.,.,17.16,0.00,0.00
15min,AgWx,beryljct,423,01SEP2019:18:30:00,89.8,13.34,88.0,86.8,87.2,88.4,86.1,17,22,14,0.691,37.0,42.3,33.0,10.57,8.0,200,8.5,12.4,0.00346,0.00528,74.9,68.4,10,300,.,.,17.16,0.00,0.00
15min,AgWx,beryljct,423,01SEP2019:18:45:00,89.1,13.34,86.3,85.9,87.2,88.0,85.8,16,19,14,0.781,35.1,39.4,32.3,8.9,8.8,196,6.9,11.3,0.00330,0.00526,74.9,68.6,10,248,.,.,17.16,0.00,0.00
15min,AgWx,beryljct,423,01SEP2019:19:00:00,88.3,13.29,85.6,86.7,86.5,87.1,85.7,16,19,15,0.695,35.2,38.5,33.0,6.905,9.9,196,9.3,13.1,0.00317,0.00528,74.9,68.7,10,198,.,.,17.16,0.00,0.00
15min,AgWx,beryljct,423,01SEP2019:19:15:00,87.4,13.2,85.4,85.7,85.9,86.5,85.0,16,19,15,0.671,35.1,38.5,32.6,8.92,8.1,194,5.9,11.9,0.00168,0.00232,74.7,68.9,10,149,.,.,17.16,0.00,0.00
15min,AgWx,beryljct,423,01SEP2019:19:30:00,86.1,13.16,84.9,84.5,84.4,85.8,83.8,18,19,16,0.663,35.7,37.9,32.7,7.585,6.7,189,5.2,9.7,0.00132,0.00187,74.6,69.0,10,104,.,.,17.16,0.00,0.00
15min,AgWx,beryljct,423,01SEP2019:19:45:00,84.5,13.14,81.7,82.4,82.8,84.6,82.0,19,21,16,0.696,36.2,39.1,32.5,4.669,4.3,183,4.6,7.5,0.00077,0.00118,74.4,69.1,10,64,.,.,17.17,0.00,0.00
15min,AgWx,beryljct,423,01SEP2019:20:00:00,82.1,13.11,78.0,76.6,78.3,82.3,75.8,24,29,19,0.750,38.4,41.5,35.7,4.604,4.4,191,5.7,5.8,0.00055,0.00085,74.2,69.3,10,18,.,.,17.16,0.00,0.00
15min,AgWx,beryljct,423,01SEP2019:20:15:00,79.1,13.09,78.5,77.2,76.2,77.5,74.3,24,30,19,0.602,36.5,41.4,31.7,3.376,3.2,180,8.6,4.9,0.00028,0.00048,74.0,69.4,10,5,.,.,17.17,0.01,0.00
15min,AgWx,beryljct,423,01SEP2019:20:30:00,77.1,13.09,74.6,76.7,78.5,79.7,76.4,18,24,16,0.638,31.1,37.8,29.6,4.297,4.1,177,4.8,4.8,0.00048,0.00076,73.8,69.5,10,1,.,.,17.17,0.00,0.00
15min,AgWx,beryljct,423,01SEP2019:20:45:00,75.1,13.07,72.8,72.7,75.1,76.8,72.5,22,26,19,0.638,33.1,37.5,30.7,5.305,4.1,179,5.7,5.3,0.00042,0.00067,73.5,69.6,10,0,.,.,17.18,0.00,0.00
15min,AgWx,beryljct,423,01SEP2019:21:00:00,73.3,13.07,72.6,71.8,73.3,74.5,71.4,23,27,21,0.675,33.7,35.8,31.2,4.713,5.6,177,7.1,7.1,0.00063,0.00093,73.2,69.6,10,0,.,.,17.18,0.00,0.00
15min,AgWx,beryljct,423,01SEP2019:21:15:00,71.7,13.06,64.5,67.3,69.0,72.7,67.1,32,37,23,0.817,38.0,40.0,33.0,4.845,4.5,197,5.8,5.6,0.00037,0.00056,72.9,69.7,10,0,.,.,17.18,0.00,0.00
15min,AgWx,beryljct,423,01SEP2019:21:30:00,70.0,13.04,72.6,72.0,68.8,72.0,65.6,32,42,24,0.642,37.4,42.0,33.2,4.801,4.6,195,7.4,5.5,0.00039,0.00059,72.6,69.8,10,0,.,.,17.18,0.00,0.00
15min,AgWx,beryljct,423,01SEP2019:21:45:00,68.9,13.05,67.5,66.1,67.9,72.3,64.5,31,38,23,0.695,36.2,38.5,32.8,7.19,6.1,159,8.2,7.2,0.00055,0.00079,72.3,69.8,10,0,.,.,17.18,0.00,0.00
15min,AgWx,beryljct,423,01SEP2019:22:00:00,68.1,13.04,71.5,71.8,69.9,71.8,66.4,25,31,22,0.581,32.3,35.1,30.8,5.744,6.5,170,5.1,7.6,0.00068,0.00095,72.0,69.9,10,0,.,.,17.19,0.00,0.00
15min,AgWx,beryljct,423,01SEP2019:22:15:00,68.3,13.02,70.9,70.4,71.5,72.7,69.1,23,28,21,0.625,31.6,34.5,30.2,5.174,5.6,180,5.6,6.3,0.00061,0.00089,71.7,69.9,10,0,.,.,17.18,0.00,0.00
15min,AgWx,beryljct,423,01SEP2019:22:30:00,68.0,13.01,70.6,70.8,70.6,71.4,69.2,25,28,23,0.633,32.6,35.2,31.3,5.217,4.8,178,5.5,5.6,0.00047,0.00072,71.3,69.9,10,0,.,.,17.18,0.00,0.00
15min,AgWx,beryljct,423,01SEP2019:22:45:00,67.9,13.01,70.6,70.8,70.6,71.8,69.6,25,27,22,0.636,32.8,34.2,31.3,5.283,5.2,185,5.3,5.9,0.00053,0.00079,71.0,69.9,10,0,.,.,17.18,0.00,0.00
15min,AgWx,beryljct,423,01SEP2019:23:00:00,67.8,13.01,62.1,64.1,69.5,71.0,64.1,28,45,25,0.896,35.2,42.7,33.0,5.393,4.3,198,39,6.2,0.00037,0.00058,70.7,69.9,11,0,.,.,17.18,0.00,0.00
15min,AgWx,beryljct,423,01SEP2019:23:15:00,66.8,13,63.4,63.7,64.3,66.5,63.0,35,44,29,0.745,36.1,41.5,32.9,0,4.5,358,49,7.4,0.00032,0.00049,70.4,69.9,11,0,.,.,17.18,0.00,0.00
15min,AgWx,beryljct,423,01SEP2019:23:30:00,65.3,12.98,64.9,62.0,63.4,65.8,60.6,38,49,29,0.745,36.8,41.4,33.0,1.162,0.2,313,4.2,1.3,-0.00041,-0.00063,70.1,69.9,11,0,.,.,17.19,0.00,0.00
15min,AgWx,beryljct,423,01SEP2019:23:45:00,63.9,12.97,60.4,65.1,65.1,67.5,62.3,33,39,26,0.810,35.4,39.5,31.6,0.022,1.2,268,38,3.4,-0.00018,-0.00023,69.8,69.9,10,0,.,.,17.18,0.00,0.00
15min,AgWx,beryljct,423,02SEP2019:00:00:00,63.4,12.96,72.9,70.8,66.0,70.8,62.4,32,45,20,0.513,35.0,40.9,27.7,4.297,3.0,279,9.7,4.7,0.00014,0.00025,69.6,69.8,11,0,.,.,17.19,0.00,0.00
15min,AgWx,beryljct,423,02SEP2019:00:15:00,63.4,12.96,56.5,58.3,63.6,72.4,58.3,37,49,18,0.805,36.3,40.6,26.9,2.039,3.6,188,22,6.0,0.00021,0.00034,69.3,69.8,11,0,.,.,17.19,0.00,0.00
15min,AgWx,beryljct,423,02SEP2019:00:30:00,62.0,12.94,53.1,53.7,55.8,58.1,52.7,61,76,49,0.996,42.3,45.4,38.9,3.31,2.4,135,44,5.5,-0.00006,-0.00006,69.0,69.7,10,0,.,.,17.19,0.00,0.00
15min,AgWx,bigpiney,439,01SEP2019:00:00:00,51.9,12.74,54.2,53.4,52.7,54.6,50.4,42,45,39,0.562,29.9,30.3,29.5,1.688,1.3,146,36,3.0,-0.00017,-0.00021,53.2,50.9,41,0,0,0.0,4.17,0.00,0.00
15min,AgWx,bigpiney,439,01SEP2019:00:15:00,51.5,12.72,48.6,45.9,50.0,53.5,45.9,47,55,40,0.583,30.6,32.2,29.3,1.556,3.2,199,46,5.3,0.00004,0.00009,53.1,50.9,41,0,0,0.0,4.17,0.00,0.00
15min,AgWx,bigpiney,439,01SEP2019:00:30:00,50.9,12.71,44.9,44.5,45.5,47.5,44.4,56,57,52,0.569,30.6,31.5,29.6,1.754,1.2,11,41,3.9,-0.00017,-0.00023,53.1,50.9,41,0,0,0.0,4.17,0.00,0.00
15min,AgWx,bigpiney,439,01SEP2019:00:45:00,50.1,12.71,45.8,46.1,46.0,47.0,44.6,55,57,54,0.583,30.9,31.3,30.2,0.833,1.4,69,26,2.6,-0.00015,-0.00020,53.0,50.9,41,0,0,0.0,4.17,0.00,0.00
15min,AgWx,bigpiney,439,01SEP2019:01:00:00,49.3,12.7,48.0,48.6,47.0,48.7,45.8,53,56,50,0.581,30.9,31.2,30.2,3.398,3.0,254,13,4.6,-0.00001,0.00002,52.9,50.9,41,0,0,0.0,4.17,0.00,0.00
15min,AgWx,bigpiney,439,01SEP2019:01:15:00,48.3,12.7,47.2,48.4,48.6,49.8,46.4,50,54,48,0.579,30.7,31.2,28.9,4.757,4.3,245,14,6.2,0.00010,0.00017,52.8,51.0,41,0,0,0.0,4.17,0.00,0.00
15min,AgWx,bigpiney,439,01SEP2019:01:30:00,47.3,12.69,48.6,50.4,46.8,50.6,43.0,53,61,47,0.582,30.7,32.1,29.6,5.415,5.2,214,8.5,6.9,0.00013,0.00020,52.7,51.0,41,0,0,0.0,4.17,0.00,0.00
15min,AgWx,bigpiney,439,01SEP2019:01:45:00,46.6,12.68,52.5,48.0,46.0,50.1,43.2,57,63,47,0.627,31.6,32.7,30.6,5.7,5.1,207,7.9,6.8,0.00010,0.00015,52.7,50.9,41,0,0,0.0,4.17,0.00,0.00
15min,AgWx,bigpiney,439,01SEP2019:02:00:00,46.4,12.67,37.5,38.8,46.6,50.9,38.8,56,70,48,0.561,31.4,32.5,29.8,4.143,5.9,204,5.4,7.1,0.00016,0.00022,52.6,51.0,41,0,0,0.0,4.17,0.00,0.00
15min,AgWx,bigpiney,439,01SEP2019:02:15:00,45.8,12.65,37.3,37.1,39.1,41.3,36.5,71,77,67,0.567,30.6,33.0,28.6,2.543,3.2,224,11,4.8,-0.00006,-0.00006,52.5,51.0,41,0,0,0.0,4.17,0.00,0.00
15min,AgWx,bigpiney,439,01SEP2019:02:30:00,45.0,12.66,42.9,42.4,39.7,42.4,37.1,73,77,67,0.618,31.9,33.0,30.2,2.85,2.4,258,28,3.5,-0.00011,-0.00013,52.4,50.9,41,0,0,0.0,4.17,0.00,0.00
15min,AgWx,bigpiney,439,01SEP2019:02:45:00,44.5,12.65,44.1,43.3,41.5,43.3,39.9,70,74,67,0.644,32.3,33.4,31.7,5.59,3.8,240,11,6.5,-0.00003,-0.00002,52.3,50.9,41,0,0,0.0,4.17,0.00,0.00
15min,AgWx,bigpiney,439,01SEP2019:03:00:00,44.4,12.64,41.7,41.2,42.1,43.4,40.9,70,74,67,0.644,33.0,33.4,32.7,5.305,4.7,241,9.4,6.2,0.00000,0.00003,52.2,51.0,41,0,0,0.0,4.17,0.00,0.00
15min,AgWx,bigpiney,439,01SEP2019:03:15:00,44.3,12.64,40.2,40.1,40.3,41.3,39.2,73,76,70,0.620,32.4,33.4,31.3,4.143,3.9,239,21,5.9,-0.00004,-0.00003,52.2,51.0,41,0,0,0.0,4.17,0.00,0.00
15min,AgWx,bigpiney,439,01SEP2019:03:30:00,43.9,12.62,40.7,41.7,41.2,44.6,39.4,68,74,58,0.591,31.6,32.3,30.0,3.683,3.8,254,15,6.3,-0.00002,-0.00001,52.1,51.0,41,0,0,0.0,4.17,0.00,0.00
15min,AgWx,bigpiney,439,01SEP2019:03:45:00,43.5,12.61,45.9,43.8,42.9,44.2,40.8,62,69,58,0.582,30.8,31.9,29.9,0.658,1.2,291,34,3.6,-0.00017,-0.00023,52.0,50.9,41,0,0,0.0,4.17,0.00,0.00
15min,AgWx,bigpiney,439,01SEP2019:04:00:00,43.0,12.61,44.3,43.7,43.0,44.7,41.7,62,64,56,0.585,30.6,31.2,28.7,3.924,2.2,241,27,3.9,-0.00010,-0.00011,51.9,50.9,41,0,0,0.0,4.17,0.00,0.00
15min,AgWx,bigpiney,439,01SEP2019:04:15:00,42.5,12.6,38.3,40.0,42.7,45.1,40.0,61,67,56,0.557,30.3,31.2,29.1,5.349,4.3,228,6.1,5.7,0.00003,0.00007,51.8,50.9,41,0,0,0.0,4.17,0.00,0.00
15min,AgWx,bigpiney,439,01SEP2019:04:30:00,41.8,12.59,37.8,38.8,39.2,41.7,37.9,68,71,62,0.568,29.6,30.7,28.5,4.538,4.0,227,9.0,5.7,-0.00001,0.00000,51.7,50.9,41,0,0,0.0,4.17,0.00,0.00
15min,AgWx,bigpiney,439,01SEP2019:04:45:00,41.0,12.57,37.9,36.7,37.2,38.9,35.2,74,78,71,0.566,29.5,30.7,27.4,2.938,3.5,236,32,5.2,-0.00005,-0.00005,51.7,50.9,41,0,0,0.0,4.17,0.00,0.00
15min,AgWx,bigpiney,439,01SEP2019:05:00:00,40.4,12.57,40.7,39.5,38.0,39.7,36.7,70,77,66,0.548,29.1,30.1,27.8,2.061,1.9,255,18,4.0,-0.00012,-0.00015,51.6,50.9,41,0,0,0.0,4.17,0.00,0.00
15min,AgWx,bigpiney,439,01SEP2019:05:15:00,40.1,12.55,40.3,39.3,38.4,39.9,37.1,68,72,63,0.570,28.9,30.3,26.8,1.228,1.7,245,21,4.3,-0.00013,-0.00017,51.5,50.9,41,0,0,0.0,4.17,0.00,0.00
15min,AgWx,bigpiney,439,01SEP2019:05:30:00,39.8,12.54,39.2,39.3,40.3,41.5,39.3,67,70,63,0.555,30.1,30.6,29.1,1.578,0.7,155,62,1.9,-0.00022,-0.00032,51.4,50.9,41,0,0,0.0,4.17,0.00,0.00
15min,AgWx,bigpiney,439,01SEP2019:05:45:00,39.7,12.53,39.1,37.1,38.0,39.3,35.9,73,76,68,0.564,30.0,30.8,28.8,0.943,0.9,189,61,1.9,-0.00020,-0.00029,51.3,50.9,41,0,0,0.0,4.17,0.00,0.00
15min,AgWx,bigpiney,439,01SEP2019:06:00:00,39.4,12.52,42.6,41.6,39.7,41.6,37.3,64,75,59,0.529,28.6,30.2,28.0,1.293,1.2,25,10,1.7,-0.00017,-0.00023,51.2,50.8,41,0,0,0.0,4.17,0.00,0.00
15min,AgWx,bigpiney,439,01SEP2019:06:15:00,39.4,12.51,39.6,39.7,41.1,41.9,39.5,61,64,58,0.527,28.7,29.9,27.8,0.395,1.4,325,36,2.1,-0.00015,-0.00019,51.2,50.9,41,0,0,0.0,4.17,0.00,0.00
15min,AgWx,bigpiney,439,01SEP2019:06:30:00,39.2,12.51,41.7,40.8,39.9,40.8,39.4,64,65,62,0.543,28.6,29.3,28.2,0,1.1,275,11,1.8,-0.00018,-0.00025,51.1,50.9,41,0,0,0.0,4.17,0.00,0.00
15min,AgWx,bigpiney,439,01SEP2019:06:45:00,38.9,12.5,41.0,40.3,40.3,41.2,38.8,63,66,60,0.536,28.7,29.1,27.0,1.096,0.6,280,25,1.3,-0.00023,-0.00034,51.0,50.8,41,3,0,0.0,4.17,0.00,0.00
15min,AgWx,bigpiney,439,01SEP2019:07:00:00,38.8,12.5,38.7,40.3,40.8,41.0,40.3,61,63,60,0.515,28.5,28.9,27.8,0.504,1.5,348,27,2.2,-0.00033,-0.00026,50.9,50.8,41,16,0,0.0,4.17,0.00,0.00
15min,AgWx,bigpiney,439,01SEP2019:07:15:00,39.0,12.53,41.2,40.5,39.9,40.5,39.1,62,64,61,0.520,28.0,28.3,27.3,0.943,1.1,334,12,1.9,-0.00020,-0.00016,50.8,50.8,41,47,0,0.0,4.17,0.00,0.00